{"data":{"norad_id":62051,"intl_designator":"2024-216V","name":"STARLINK-32496","alt_names":[],"object_type":"PAYLOAD","status":"ACTIVE","operator":null,"country":"US","launch_date":"2024-11-21","launch_site_code":"AFETR","launch_vehicle":null,"mission":null,"orbit_class":"UNKNOWN","rcs_meters":null,"size_class":null,"mass_kg":null,"dimensions":null,"purposes":["comms"],"wikipedia_slug":null,"has_3d_model":false,"image_url":null,"decayed_at":null,"tle_current":{"epoch":"2026-05-25T03:38:54.422592Z","epoch_age_seconds":65133,"freshness":"FRESH","line1":"1 62051U 24216V   26145.15201878  .00010754  00000+0  39965-3 0  9990","line2":"2 62051  42.9987 191.9316 0001057 277.7207  82.3524 15.27588490 85488","mean_motion":15.2758849,"eccentricity":0.0001057,"inclination_deg":42.9987,"raan_deg":191.9316,"arg_perigee_deg":277.7207,"mean_anomaly_deg":82.3524,"bstar":0.00039965,"rev_number":8548,"period_min":94.266224799848,"perigee_km":482.29844935989,"apogee_km":483.74889872638,"semimajor_km":6861.1606740431,"source":"CELESTRAK","updated_at":"2026-05-25T13:38:19.527988Z"}}}